TimeEDT,TemperatureF,Dew PointF,Humidity,Sea Level PressureIn,VisibilityMPH,Wind Direction,Wind SpeedMPH,Gust SpeedMPH,PrecipitationIn,Events,Conditions,WindDirDegrees,DateUTC
12:04 AM,55.4,55.4,100,29.93,9.0,Calm,Calm,-,N/A,,Overcast,0,2013-09-05 04:04:00
12:23 AM,55.4,53.6,94,29.93,10.0,Calm,Calm,-,N/A,,Scattered Clouds,0,2013-09-05 04:23:00
12:51 AM,54.0,53.1,97,29.92,8.0,Calm,Calm,-,N/A,,Partly Cloudy,0,2013-09-05 04:51:00
1:01 AM,51.8,51.8,100,29.92,1.8,Calm,Calm,-,N/A,,Partly Cloudy,0,2013-09-05 05:01:00
1:10 AM,53.6,51.8,94,29.91,0.5,Calm,Calm,-,N/A,Fog,Fog,0,2013-09-05 05:10:00
1:22 AM,51.8,51.8,100,29.91,1.0,Calm,Calm,-,N/A,,Mostly Cloudy,0,2013-09-05 05:22:00
1:28 AM,53.6,51.8,94,29.91,3.0,Calm,Calm,-,N/A,,Overcast,0,2013-09-05 05:28:00
1:51 AM,54.0,52.0,93,29.91,8.0,North,4.6,-,N/A,,Overcast,350,2013-09-05 05:51:00
2:05 AM,53.6,51.8,94,29.92,10.0,North,4.6,-,N/A,,Overcast,360,2013-09-05 06:05:00
2:13 AM,53.6,51.8,94,29.92,10.0,North,4.6,-,N/A,,Overcast,360,2013-09-05 06:13:00
2:25 AM,53.6,51.8,94,29.93,10.0,North,4.6,-,N/A,,Overcast,360,2013-09-05 06:25:00
2:33 AM,53.6,50.0,88,29.93,10.0,North,8.1,-,N/A,,Overcast,10,2013-09-05 06:33:00
2:51 AM,51.1,46.9,86,29.93,10.0,North,4.6,-,N/A,,Mostly Cloudy,350,2013-09-05 06:51:00
3:51 AM,46.9,45.0,93,29.96,10.0,Calm,Calm,-,N/A,,Mostly Cloudy,0,2013-09-05 07:51:00
4:51 AM,46.9,44.1,90,29.99,10.0,Calm,Calm,-,N/A,,Mostly Cloudy,0,2013-09-05 08:51:00
5:51 AM,46.0,45.0,96,30.01,10.0,Calm,Calm,-,N/A,,Mostly Cloudy,0,2013-09-05 09:51:00
6:51 AM,46.0,44.1,93,30.01,10.0,Calm,Calm,-,N/A,,Partly Cloudy,0,2013-09-05 10:51:00
7:51 AM,48.0,45.0,89,30.04,10.0,Calm,Calm,-,N/A,,Clear,0,2013-09-05 11:51:00
8:51 AM,52.0,44.1,74,30.04,10.0,WNW,5.8,-,N/A,,Clear,300,2013-09-05 12:51:00
9:51 AM,53.1,43.0,69,30.06,10.0,North,6.9,-,N/A,,Scattered Clouds,360,2013-09-05 13:51:00
10:51 AM,55.9,39.9,55,30.06,10.0,WNW,8.1,-,N/A,,Mostly Cloudy,300,2013-09-05 14:51:00
11:51 AM,54.0,39.0,57,30.07,10.0,NNW,8.1,-,N/A,,Overcast,340,2013-09-05 15:51:00
12:51 PM,55.9,36.0,47,30.08,10.0,Variable,5.8,16.1,N/A,,Mostly Cloudy,0,2013-09-05 16:51:00
1:51 PM,55.0,37.9,53,30.08,10.0,WNW,8.1,-,N/A,,Mostly Cloudy,300,2013-09-05 17:51:00
2:51 PM,55.9,37.0,49,30.09,10.0,NW,8.1,16.1,N/A,,Scattered Clouds,310,2013-09-05 18:51:00
3:51 PM,57.0,36.0,45,30.10,10.0,West,10.4,19.6,N/A,,Partly Cloudy,280,2013-09-05 19:51:00
4:51 PM,55.9,34.0,44,30.11,10.0,NW,8.1,-,N/A,,Partly Cloudy,320,2013-09-05 20:51:00
5:51 PM,55.0,33.1,43,30.12,10.0,Variable,4.6,-,N/A,,Clear,0,2013-09-05 21:51:00
6:51 PM,51.1,35.1,54,30.14,10.0,Variable,4.6,-,N/A,,Clear,0,2013-09-05 22:51:00
7:51 PM,46.0,36.0,68,30.17,10.0,Calm,Calm,-,N/A,,Clear,0,2013-09-05 23:51:00
8:51 PM,39.9,37.0,89,30.18,10.0,Calm,Calm,-,N/A,,Clear,0,2013-09-06 00:51:00
9:51 PM,37.0,35.1,93,30.20,10.0,Calm,Calm,-,N/A,,Clear,0,2013-09-06 01:51:00
10:51 PM,35.1,34.0,96,30.20,10.0,Calm,Calm,-,N/A,,Clear,0,2013-09-06 02:51:00
11:51 PM,33.1,33.1,100,30.21,10.0,Calm,Calm,-,N/A,,Clear,0,2013-09-06 03:51:00